• In Romania
  • List of Countries
  • For 7 days
  • Water Temperature
  • Satellite Maps
  • Weather Map
  • Weather Widgets
  • user-avatar
    Login

    Hourly Weather Antwerp

    Today, 21 October, Saturday

    Time Temperature Precipitation Wind Pressure Humidity
    00:00 +11°C° 0 mm 4 mps 758 mmHg 79%
    01:00 +10°C° 0 mm 5 mps 758 mmHg 78%
    02:00 +10°C° 0 mm 5 mps 757 mmHg 77%
    03:00 +10°C° 0 mm 5 mps 757 mmHg 76%
    04:00 +11°C° 0.1 mm 6 mps 756 mmHg 79%
    05:00 +11°C° 0.1 mm 6 mps 756 mmHg 81%
    06:00 +13°C° 0.1 mm 6 mps 756 mmHg 84%
    07:00 +13°C° 0.6 mm 6 mps 756 mmHg 86%
    08:00 +14°C° 0.6 mm 6 mps 756 mmHg 87%
    09:00 +15°C° 0.6 mm 6 mps 756 mmHg 89%
    10:00 +15°C° 0.1 mm 7 mps 756 mmHg 83%
    11:00 +15°C° 0.1 mm 7 mps 756 mmHg 76%
    12:00 +16°C° 0.1 mm 7 mps 756 mmHg 70%
    13:00 +16°C° 0.1 mm 7 mps 756 mmHg 67%
    14:00 +15°C° 0.1 mm 7 mps 756 mmHg 65%
    15:00 +15°C° 0.1 mm 7 mps 756 mmHg 62%
    16:00 +14°C° 0 mm 7 mps 756 mmHg 64%
    17:00 +12°C° 0 mm 7 mps 757 mmHg 66%
    18:00 +11°C° 0 mm 6 mps 757 mmHg 67%
    19:00 +11°C° 0 mm 7 mps 757 mmHg 67%
    20:00 +11°C° 0 mm 8 mps 756 mmHg 66%
    21:00 +11°C° 0 mm 8 mps 756 mmHg 65%
    22:00 +11°C° 0.1 mm 9 mps 756 mmHg 66%
    23:00 +11°C° 0.1 mm 9 mps 756 mmHg 67%

    Tomorrow, 22 October, Sunday

    Time Temperature Precipitation Wind Pressure Humidity
    00:00 +11°C° 0.1 mm 10 mps 756 mmHg 69%
    01:00 +11°C° 0.2 mm 9 mps 756 mmHg 70%
    02:00 +11°C° 0.2 mm 9 mps 756 mmHg 72%
    03:00 +11°C° 0.2 mm 9 mps 757 mmHg 73%
    04:00 +10°C° 0.1 mm 9 mps 757 mmHg 74%
    05:00 +10°C° 0.1 mm 8 mps 757 mmHg 75%
    06:00 +10°C° 0.1 mm 8 mps 757 mmHg 77%
    07:00 +10°C° 0.2 mm 8 mps 757 mmHg 76%
    08:00 +10°C° 0.2 mm 8 mps 757 mmHg 76%
    09:00 +10°C° 0.2 mm 8 mps 757 mmHg 75%
    10:00 +11°C° 0.3 mm 8 mps 758 mmHg 73%
    11:00 +11°C° 0.3 mm 8 mps 758 mmHg 70%
    12:00 +12°C° 0.3 mm 8 mps 758 mmHg 68%
    13:00 +11°C° 0.3 mm 8 mps 758 mmHg 69%
    14:00 +11°C° 0.3 mm 8 mps 758 mmHg 70%
    15:00 +11°C° 0.3 mm 7 mps 759 mmHg 71%
    16:00 +10°C° 0.5 mm 7 mps 759 mmHg 72%
    17:00 +10°C° 0.5 mm 6 mps 760 mmHg 73%
    18:00 +10°C° 0.5 mm 6 mps 760 mmHg 74%
    19:00 +10°C° 0.1 mm 5 mps 760 mmHg 74%
    20:00 +10°C° 0.1 mm 5 mps 761 mmHg 74%
    21:00 +10°C° 0.1 mm 5 mps 761 mmHg 73%
    22:00 +10°C° 0.2 mm 5 mps 761 mmHg 75%
    23:00 +10°C° 0.2 mm 5 mps 762 mmHg 77%

    Day after tomorrow, 23 October, Monday

    Time Temperature Precipitation Wind Pressure Humidity
    00:00 +10°C° 0.2 mm 5 mps 762 mmHg 79%
    01:00 +10°C° 0.3 mm 6 mps 762 mmHg 80%
    02:00 +9°C° 0.3 mm 6 mps 762 mmHg 81%
    03:00 +9°C° 0.3 mm 6 mps 762 mmHg 82%
    04:00 +9°C° 0.2 mm 5 mps 762 mmHg 83%
    05:00 +10°C° 0.2 mm 5 mps 763 mmHg 84%
    06:00 +10°C° 0.2 mm 5 mps 763 mmHg 85%
    07:00 +10°C° 0.1 mm 5 mps 763 mmHg 83%
    08:00 +12°C° 0.1 mm 5 mps 763 mmHg 82%
    09:00 +13°C° 0.1 mm 5 mps 763 mmHg 81%
    10:00 +13°C° 0.2 mm 5 mps 763 mmHg 82%
    11:00 +13°C° 0.2 mm 4 mps 763 mmHg 84%
    12:00 +13°C° 0.2 mm 4 mps 763 mmHg 86%
    13:00 +12°C° 0.7 mm 4 mps 763 mmHg 88%
    14:00 +12°C° 0.7 mm 5 mps 763 mmHg 89%
    15:00 +12°C° 0.7 mm 5 mps 763 mmHg 91%
    16:00 +12°C° 1.2 mm 4 mps 763 mmHg 92%
    17:00 +12°C° 1.2 mm 4 mps 763 mmHg 93%
    18:00 +12°C° 1.2 mm 4 mps 763 mmHg 94%
    19:00 +13°C° 0.3 mm 4 mps 763 mmHg 94%
    20:00 +13°C° 0.3 mm 4 mps 763 mmHg 95%
    21:00 +13°C° 0.3 mm 3 mps 764 mmHg 95%
    22:00 +13°C° 0 mm 3 mps 764 mmHg 96%
    23:00 +13°C° 0 mm 3 mps 764 mmHg 96%

    24 October, Tuesday

    Time Temperature Precipitation Wind Pressure Humidity
    00:00 +13°C° 0 mm 3 mps 764 mmHg 96%
    01:00 +14°C° 0.1 mm 3 mps 764 mmHg 97%
    02:00 +14°C° 0.1 mm 3 mps 764 mmHg 97%
    03:00 +14°C° 0.1 mm 3 mps 764 mmHg 97%
    04:00 +13°C° 0 mm 3 mps 764 mmHg 97%
    05:00 +13°C° 0 mm 3 mps 765 mmHg 97%
    06:00 +13°C° 0 mm 3 mps 765 mmHg 97%
    07:00 +14°C° 0.1 mm 3 mps 765 mmHg 95%
    08:00 +14°C° 0.1 mm 3 mps 765 mmHg 94%
    09:00 +14°C° 0.1 mm 4 mps 766 mmHg 93%
    10:00 +15°C° 0.2 mm 4 mps 766 mmHg 93%
    11:00 +15°C° 0.2 mm 4 mps 766 mmHg 93%
    12:00 +15°C° 0.2 mm 4 mps 766 mmHg 92%
    13:00 +15°C° 0.2 mm 4 mps 766 mmHg 93%
    14:00 +15°C° 0.2 mm 4 mps 766 mmHg 93%
    15:00 +17°C° 0.2 mm 4 mps 766 mmHg 93%
    16:00 +17°C° 0 mm 4 mps 766 mmHg 94%
    17:00 +17°C° 0 mm 4 mps 766 mmHg 95%
    18:00 +15°C° 0 mm 4 mps 766 mmHg 95%
    19:00 +15°C° 0 mm 4 mps 766 mmHg 95%
    20:00 +15°C° 0 mm 4 mps 767 mmHg 94%
    21:00 +15°C° 0 mm 4 mps 767 mmHg 94%
    22:00 +15°C° 0 mm 4 mps 767 mmHg 94%
    23:00 +15°C° 0 mm 4 mps 767 mmHg 94%

    25 October, Wednesday

    Time Temperature Precipitation Wind Pressure Humidity
    00:00 +15°C° 0 mm 4 mps 767 mmHg 94%
    01:00 +16°C° 0 mm 3 mps 767 mmHg 94%
    02:00 +16°C° 0 mm 3 mps 767 mmHg 95%
    03:00 +14°C° 0 mm 3 mps 767 mmHg 95%
    04:00 +14°C° 0 mm 3 mps 767 mmHg 95%
    05:00 +14°C° 0 mm 4 mps 767 mmHg 96%
    06:00 +13°C° 0 mm 4 mps 767 mmHg 96%
    07:00 +14°C° 0 mm 4 mps 767 mmHg 93%
    08:00 +15°C° 0 mm 4 mps 767 mmHg 90%
    09:00 +15°C° 0 mm 4 mps 767 mmHg 88%
    10:00 +17°C° 0 mm 4 mps 767 mmHg 84%
    11:00 +19°C° 0 mm 4 mps 767 mmHg 80%
    12:00 +20°C° 0 mm 3 mps 767 mmHg 76%
    13:00 +20°C° 0 mm 3 mps 767 mmHg 77%
    14:00 +20°C° 0 mm 2 mps 766 mmHg 77%
    15:00 +20°C° 0 mm 2 mps 766 mmHg 78%
    16:00 +19°C° 0 mm 2 mps 766 mmHg 82%
    17:00 +18°C° 0 mm 2 mps 766 mmHg 86%
    18:00 +18°C° 0 mm 1 mps 767 mmHg 91%
    19:00 +16°C° 0 mm 2 mps 767 mmHg 91%
    20:00 +16°C° 0 mm 2 mps 767 mmHg 92%
    21:00 +16°C° 0 mm 2 mps 767 mmHg 92%
    22:00 +15°C° 0 mm 2 mps 767 mmHg 92%
    23:00 +15°C° 0 mm 2 mps 767 mmHg 92%

    26 October, Thursday

    Time Temperature Precipitation Wind Pressure Humidity
    00:00 +15°C° 0 mm 2 mps 767 mmHg 92%
    01:00 +15°C° 0 mm 2 mps 767 mmHg 91%
    02:00 +15°C° 0 mm 2 mps 767 mmHg 91%
    03:00 +15°C° 0 mm 2 mps 766 mmHg 91%
    04:00 +15°C° 0 mm 2 mps 766 mmHg 90%
    05:00 +14°C° 0 mm 2 mps 766 mmHg 90%
    06:00 +14°C° 0 mm 2 mps 766 mmHg 89%
    07:00 +14°C° 0 mm 3 mps 767 mmHg 84%
    08:00 +16°C° 0 mm 3 mps 767 mmHg 79%
    09:00 +17°C° 0 mm 3 mps 767 mmHg 74%
    10:00 +19°C° 0 mm 3 mps 767 mmHg 70%
    11:00 +20°C° 0 mm 3 mps 767 mmHg 66%
    12:00 +21°C° 0 mm 3 mps 766 mmHg 62%
    13:00 +21°C° 0 mm 3 mps 766 mmHg 64%
    14:00 +21°C° 0 mm 2 mps 766 mmHg 66%
    15:00 +21°C° 0 mm 2 mps 766 mmHg 67%
    16:00 +19°C° 0 mm 2 mps 766 mmHg 72%
    17:00 +18°C° 0 mm 2 mps 766 mmHg 77%
    18:00 +17°C° 0 mm 2 mps 766 mmHg 82%
    19:00 +16°C° 0 mm 2 mps 766 mmHg 83%
    20:00 +16°C° 0 mm 2 mps 767 mmHg 85%
    21:00 +15°C° 0 mm 2 mps 767 mmHg 87%
    22:00 +15°C° 0 mm 2 mps 767 mmHg 87%
    23:00 +14°C° 0 mm 2 mps 767 mmHg 88%
    Show more